Time,TemperatureF,DewpointF,PressureIn,WindDirection,WindDirectionDegrees,WindSpeedMPH,WindSpeedGustMPH,Humidity,HourlyPrecipIn,Conditions,Clouds,dailyrainin,SoftwareType,DateUTC
2013-02-16 00:05:00,33.9,32.0,29.99,NW,310,0.0,0.0,94,0.00,,,0.00,weatherlink.com 1.10,2013-02-16 05:05:00,
2013-02-16 00:20:00,33.7,32.0,29.99,NW,310,0.0,0.0,94,0.00,,,0.00,weatherlink.com 1.10,2013-02-16 05:20:00,
2013-02-16 00:35:00,33.7,32.0,29.99,NW,310,0.0,1.0,94,0.01,,,0.01,weatherlink.com 1.10,2013-02-16 05:35:00,
2013-02-16 00:50:00,33.8,33.0,29.98,NW,310,0.0,1.0,95,0.01,,,0.01,weatherlink.com 1.10,2013-02-16 05:50:00,
2013-02-16 01:05:00,33.8,33.0,29.97,NW,310,0.0,0.0,95,0.01,,,0.01,weatherlink.com 1.10,2013-02-16 06:05:00,
2013-02-16 01:20:00,33.6,32.0,29.97,NW,310,0.0,0.0,95,0.00,,,0.01,weatherlink.com 1.10,2013-02-16 06:20:00,
2013-02-16 01:35:00,33.1,32.0,29.97,NW,310,0.0,0.0,94,0.00,,,0.01,weatherlink.com 1.10,2013-02-16 06:35:00,
2013-02-16 01:50:00,32.6,31.0,29.97,NW,310,0.0,0.0,94,0.00,,,0.01,weatherlink.com 1.10,2013-02-16 06:50:00,
2013-02-16 02:05:00,32.4,31.0,29.95,NW,310,0.0,0.0,94,0.00,,,0.01,weatherlink.com 1.10,2013-02-16 07:05:00,
2013-02-16 02:20:00,32.2,31.0,29.96,NW,310,0.0,0.0,94,0.00,,,0.01,weatherlink.com 1.10,2013-02-16 07:20:00,
2013-02-16 02:35:00,32.4,31.0,29.95,NW,310,0.0,0.0,95,0.00,,,0.01,weatherlink.com 1.10,2013-02-16 07:35:00,
2013-02-16 02:51:00,32.6,31.0,29.95,NW,310,0.0,0.0,95,0.00,,,0.01,weatherlink.com 1.10,2013-02-16 07:51:00,
2013-02-16 03:06:00,32.8,32.0,29.95,NW,310,0.0,1.0,95,0.00,,,0.01,weatherlink.com 1.10,2013-02-16 08:06:00,
2013-02-16 03:20:00,33.0,32.0,29.95,NW,310,0.0,1.0,95,0.00,,,0.01,weatherlink.com 1.10,2013-02-16 08:20:00,
2013-02-16 03:35:00,33.2,32.0,29.95,NW,310,0.0,0.0,95,0.00,,,0.01,weatherlink.com 1.10,2013-02-16 08:35:00,
2013-02-16 03:50:00,33.3,32.0,29.95,NW,310,0.0,1.0,95,0.00,,,0.01,weatherlink.com 1.10,2013-02-16 08:50:00,
2013-02-16 04:05:00,33.4,32.0,29.94,NW,310,0.0,0.0,96,0.00,,,0.01,weatherlink.com 1.10,2013-02-16 09:05:00,
2013-02-16 04:21:00,33.5,33.0,29.95,NW,310,0.0,0.0,96,0.00,,,0.01,weatherlink.com 1.10,2013-02-16 09:21:00,
2013-02-16 04:35:00,33.5,32.0,29.95,NW,310,0.0,0.0,95,0.00,,,0.01,weatherlink.com 1.10,2013-02-16 09:35:00,
2013-02-16 04:51:00,33.5,32.0,29.95,NW,310,0.0,0.0,95,0.00,,,0.01,weatherlink.com 1.10,2013-02-16 09:51:00,
2013-02-16 05:06:00,33.4,32.0,29.94,NW,310,0.0,0.0,95,0.00,,,0.01,weatherlink.com 1.10,2013-02-16 10:06:00,
2013-02-16 05:20:00,33.1,32.0,29.95,NW,310,0.0,0.0,95,0.00,,,0.01,weatherlink.com 1.10,2013-02-16 10:20:00,
2013-02-16 05:35:00,32.8,32.0,29.95,NW,310,0.0,0.0,95,0.00,,,0.01,weatherlink.com 1.10,2013-02-16 10:35:00,
2013-02-16 05:50:00,32.5,31.0,29.94,NW,310,0.0,0.0,95,0.00,,,0.01,weatherlink.com 1.10,2013-02-16 10:50:00,
2013-02-16 06:05:00,32.2,31.0,29.94,NW,310,0.0,0.0,95,0.00,,,0.01,weatherlink.com 1.10,2013-02-16 11:05:00,
2013-02-16 06:20:00,32.1,31.0,29.95,NW,310,0.0,0.0,95,0.00,,,0.01,weatherlink.com 1.10,2013-02-16 11:20:00,
2013-02-16 06:35:00,32.2,31.0,29.95,NW,310,0.0,0.0,96,0.00,,,0.01,weatherlink.com 1.10,2013-02-16 11:35:00,
2013-02-16 06:50:00,32.3,31.0,29.95,NW,310,0.0,1.0,96,0.00,,,0.01,weatherlink.com 1.10,2013-02-16 11:50:00,
2013-02-16 07:05:00,32.5,32.0,29.95,NW,310,0.0,0.0,96,0.00,,,0.01,weatherlink.com 1.10,2013-02-16 12:05:00,
2013-02-16 07:21:00,32.5,32.0,29.96,NW,310,0.0,0.0,96,0.00,,,0.01,weatherlink.com 1.10,2013-02-16 12:21:00,
2013-02-16 07:36:00,32.5,32.0,29.96,NW,310,0.0,0.0,96,0.00,,,0.01,weatherlink.com 1.10,2013-02-16 12:36:00,
2013-02-16 07:51:00,32.5,32.0,29.95,NW,310,0.0,0.0,96,0.00,,,0.01,weatherlink.com 1.10,2013-02-16 12:51:00,
2013-02-16 08:06:00,32.5,32.0,29.96,NW,310,0.0,0.0,96,0.00,,,0.01,weatherlink.com 1.10,2013-02-16 13:06:00,
2013-02-16 08:21:00,32.6,32.0,29.96,NW,310,0.0,1.0,96,0.00,,,0.01,weatherlink.com 1.10,2013-02-16 13:21:00,
2013-02-16 08:36:00,32.6,32.0,29.95,NW,310,0.0,0.0,96,0.00,,,0.01,weatherlink.com 1.10,2013-02-16 13:36:00,
2013-02-16 08:51:00,33.0,32.0,29.95,NW,310,0.0,1.0,96,0.00,,,0.01,weatherlink.com 1.10,2013-02-16 13:51:00,
2013-02-16 09:06:00,33.4,32.0,29.96,NW,310,0.0,2.0,96,0.00,,,0.01,weatherlink.com 1.10,2013-02-16 14:06:00,
2013-02-16 09:21:00,33.4,32.0,29.95,NW,310,0.0,0.0,96,0.00,,,0.01,weatherlink.com 1.10,2013-02-16 14:21:00,
2013-02-16 09:36:00,33.5,33.0,29.95,NW,310,0.0,2.0,96,0.00,,,0.01,weatherlink.com 1.10,2013-02-16 14:36:00,
2013-02-16 09:51:00,33.8,33.0,29.94,NW,310,0.0,1.0,96,0.00,,,0.01,weatherlink.com 1.10,2013-02-16 14:51:00,
2013-02-16 10:06:00,34.4,33.0,29.94,NW,310,0.0,1.0,96,0.00,,,0.01,weatherlink.com 1.10,2013-02-16 15:06:00,
2013-02-16 10:21:00,34.4,33.0,29.94,NW,310,0.0,1.0,94,0.00,,,0.01,weatherlink.com 1.10,2013-02-16 15:21:00,
2013-02-16 10:36:00,34.8,33.0,29.94,NW,310,0.0,0.0,92,0.00,,,0.01,weatherlink.com 1.10,2013-02-16 15:36:00,
2013-02-16 10:51:00,35.5,33.0,29.94,NW,310,0.0,1.0,90,0.00,,,0.01,weatherlink.com 1.10,2013-02-16 15:51:00,
2013-02-16 11:06:00,36.0,33.0,29.94,NW,310,0.0,3.0,88,0.00,,,0.01,weatherlink.com 1.10,2013-02-16 16:06:00,
2013-02-16 11:21:00,36.6,33.0,29.94,NW,310,0.0,1.0,86,0.00,,,0.01,weatherlink.com 1.10,2013-02-16 16:21:00,
2013-02-16 11:36:00,36.9,32.0,29.93,NW,309,0.0,2.0,83,0.00,,,0.01,weatherlink.com 1.10,2013-02-16 16:36:00,
2013-02-16 11:51:00,36.9,32.0,29.92,NW,309,0.0,1.0,81,0.00,,,0.01,weatherlink.com 1.10,2013-02-16 16:51:00,
2013-02-16 12:06:00,37.3,32.0,29.91,NW,309,0.0,1.0,81,0.00,,,0.01,weatherlink.com 1.10,2013-02-16 17:06:00,
2013-02-16 12:21:00,37.4,31.0,29.91,NW,309,0.0,1.0,79,0.00,,,0.01,weatherlink.com 1.10,2013-02-16 17:21:00,
2013-02-16 12:36:00,37.0,31.0,29.89,NW,309,0.0,1.0,78,0.00,,,0.01,weatherlink.com 1.10,2013-02-16 17:36:00,
2013-02-16 12:51:00,37.1,31.0,29.89,NW,309,0.0,2.0,77,0.00,,,0.01,weatherlink.com 1.10,2013-02-16 17:51:00,
2013-02-16 13:06:00,37.6,30.0,29.87,NW,309,0.0,2.0,75,0.00,,,0.01,weatherlink.com 1.10,2013-02-16 18:06:00,
2013-02-16 13:21:00,37.5,31.0,29.88,NW,317,0.0,1.0,76,0.00,,,0.01,weatherlink.com 1.10,2013-02-16 18:21:00,
2013-02-16 13:36:00,37.4,30.0,29.88,NW,317,0.0,1.0,75,0.00,,,0.01,weatherlink.com 1.10,2013-02-16 18:36:00,
2013-02-16 13:51:00,37.7,30.0,29.87,NW,317,0.0,2.0,73,0.00,,,0.01,weatherlink.com 1.10,2013-02-16 18:51:00,
2013-02-16 14:06:00,38.0,28.0,29.86,NW,317,0.0,3.0,67,0.00,,,0.01,weatherlink.com 1.10,2013-02-16 19:06:00,
2013-02-16 14:21:00,38.0,27.0,29.86,NW,317,0.0,1.0,65,0.00,,,0.01,weatherlink.com 1.10,2013-02-16 19:21:00,
2013-02-16 14:36:00,37.7,28.0,29.86,NW,317,0.0,2.0,68,0.00,,,0.01,weatherlink.com 1.10,2013-02-16 19:36:00,
2013-02-16 14:51:00,37.5,27.0,29.86,NW,317,0.0,1.0,66,0.00,,,0.01,weatherlink.com 1.10,2013-02-16 19:51:00,
2013-02-16 15:06:00,37.5,27.0,29.85,NW,309,2.0,3.0,66,0.00,,,0.01,weatherlink.com 1.10,2013-02-16 20:06:00,
2013-02-16 15:21:00,37.2,27.0,29.86,NW,309,0.0,2.0,66,0.00,,,0.01,weatherlink.com 1.10,2013-02-16 20:21:00,
2013-02-16 15:36:00,36.9,26.0,29.85,NW,306,0.0,2.0,65,0.00,,,0.01,weatherlink.com 1.10,2013-02-16 20:36:00,
2013-02-16 15:51:00,36.8,26.0,29.85,NW,307,0.0,1.0,66,0.00,,,0.01,weatherlink.com 1.10,2013-02-16 20:51:00,
2013-02-16 16:06:00,36.4,26.0,29.86,WNW,303,0.0,5.0,66,0.00,,,0.01,weatherlink.com 1.10,2013-02-16 21:06:00,
2013-02-16 16:22:00,36.0,26.0,29.86,WNW,299,0.0,3.0,68,0.00,,,0.01,weatherlink.com 1.10,2013-02-16 21:22:00,
2013-02-16 16:36:00,35.7,26.0,29.87,WNW,299,0.0,2.0,67,0.00,,,0.01,weatherlink.com 1.10,2013-02-16 21:36:00,
2013-02-16 16:51:00,35.4,26.0,29.87,WNW,299,0.0,2.0,68,0.00,,,0.01,weatherlink.com 1.10,2013-02-16 21:51:00,
2013-02-16 17:06:00,35.0,24.0,29.86,WNW,300,0.0,4.0,65,0.00,,,0.01,weatherlink.com 1.10,2013-02-16 22:06:00,
2013-02-16 17:21:00,34.6,24.0,29.86,WNW,300,0.0,2.0,66,0.00,,,0.01,weatherlink.com 1.10,2013-02-16 22:21:00,
2013-02-16 17:37:00,34.4,23.0,29.87,NW,304,0.0,1.0,63,0.00,,,0.01,weatherlink.com 1.10,2013-02-16 22:37:00,
2013-02-16 17:51:00,33.9,22.0,29.87,NW,304,0.0,1.0,62,0.00,,,0.01,weatherlink.com 1.10,2013-02-16 22:51:00,
2013-02-16 18:06:00,33.6,22.0,29.87,NW,304,0.0,1.0,63,0.00,,,0.01,weatherlink.com 1.10,2013-02-16 23:06:00,
2013-02-16 18:21:00,33.3,22.0,29.87,NW,305,0.0,0.0,64,0.00,,,0.01,weatherlink.com 1.10,2013-02-16 23:21:00,
2013-02-16 18:37:00,33.0,22.0,29.88,NW,305,0.0,1.0,65,0.00,,,0.01,weatherlink.com 1.10,2013-02-16 23:37:00,
2013-02-16 18:51:00,32.8,23.0,29.87,NW,305,0.0,2.0,66,0.00,,,0.01,weatherlink.com 1.10,2013-02-16 23:51:00,
2013-02-16 19:06:00,32.5,22.0,29.87,NW,305,0.0,1.0,66,0.00,,,0.01,weatherlink.com 1.10,2013-02-17 00:06:00,
2013-02-16 19:21:00,32.3,22.0,29.87,NW,305,0.0,0.0,67,0.00,,,0.01,weatherlink.com 1.10,2013-02-17 00:21:00,
2013-02-16 19:36:00,32.0,22.0,29.86,NW,304,0.0,0.0,68,0.00,,,0.01,weatherlink.com 1.10,2013-02-17 00:36:00,
2013-02-16 19:52:00,31.8,22.0,29.87,NW,304,0.0,2.0,67,0.00,,,0.01,weatherlink.com 1.10,2013-02-17 00:52:00,
2013-02-16 20:07:00,31.9,22.0,29.87,WNW,300,0.0,5.0,66,0.00,,,0.01,weatherlink.com 1.10,2013-02-17 01:07:00,
2013-02-16 20:22:00,32.0,21.0,29.86,WNW,303,0.0,5.0,63,0.00,,,0.01,weatherlink.com 1.10,2013-02-17 01:22:00,
2013-02-16 20:37:00,32.1,21.0,29.86,WNW,302,0.0,4.0,63,0.00,,,0.01,weatherlink.com 1.10,2013-02-17 01:37:00,
2013-02-16 20:52:00,32.0,20.0,29.86,WNW,302,1.0,4.0,62,0.00,,,0.01,weatherlink.com 1.10,2013-02-17 01:52:00,
2013-02-16 21:07:00,32.0,20.0,29.85,WNW,303,1.0,4.0,62,0.00,,,0.01,weatherlink.com 1.10,2013-02-17 02:07:00,
2013-02-16 21:22:00,31.9,20.0,29.85,NW,311,0.0,5.0,61,0.00,,,0.01,weatherlink.com 1.10,2013-02-17 02:22:00,
2013-02-16 21:37:00,31.8,20.0,29.86,NW,304,2.0,5.0,62,0.00,,,0.01,weatherlink.com 1.10,2013-02-17 02:37:00,
2013-02-16 21:52:00,31.7,20.0,29.85,NW,305,0.0,3.0,62,0.00,,,0.01,weatherlink.com 1.10,2013-02-17 02:52:00,
2013-02-16 22:07:00,31.6,20.0,29.85,WNW,298,1.0,7.0,62,0.00,,,0.01,weatherlink.com 1.10,2013-02-17 03:07:00,
2013-02-16 22:22:00,31.4,20.0,29.84,WNW,300,0.0,8.0,63,0.00,,,0.01,weatherlink.com 1.10,2013-02-17 03:22:00,
2013-02-16 22:37:00,31.2,20.0,29.84,WNW,292,0.0,10.0,64,0.00,,,0.01,weatherlink.com 1.10,2013-02-17 03:37:00,
2013-02-16 22:52:00,30.9,20.0,29.84,NW,320,0.0,4.0,65,0.00,,,0.01,weatherlink.com 1.10,2013-02-17 03:52:00,
2013-02-16 23:07:00,30.5,20.0,29.83,NW,304,2.0,5.0,66,0.00,,,0.01,weatherlink.com 1.10,2013-02-17 04:07:00,
2013-02-16 23:22:00,30.1,20.0,29.83,NW,317,0.0,9.0,66,0.00,,,0.01,weatherlink.com 1.10,2013-02-17 04:22:00,
2013-02-16 23:37:00,29.7,20.0,29.83,NW,309,0.0,7.0,67,0.00,,,0.01,weatherlink.com 1.10,2013-02-17 04:37:00,
2013-02-16 23:52:00,29.4,20.0,29.83,WNW,296,2.0,6.0,67,0.00,,,0.01,weatherlink.com 1.10,2013-02-17 04:52:00,